Simultaneous Nadir Overpasses (SNOs) Predictions

Prediction of SNOs between GOES-16 and METOP-B Satellite Orbit:

Table of predicted SNOs for the next 14.0 days since TLE Epoch: 8/26/2022
Index Date Time (GOES-16) GOES-16 Lat,Lon METOP-B Lat,Lon Distance(km) Time Diff (sec)
1 08/27/2022 14:26:51 -0.03, -75.21 -0.32, -73.96 143.41 80
2 08/29/2022 02:43:10 0.03, -75.21 -0.70, -78.55 380.40 80
3 08/30/2022 02:25:10 0.03, -75.22 0.39, -73.55 189.80 80
4 08/31/2022 14:41:21 -0.03, -75.24 0.60, -78.11 326.91 80
5 09/01/2022 14:23:21 -0.03, -75.25 -0.49, -73.11 243.45 80
6 09/03/2022 02:39:40 0.03, -75.25 -0.53, -77.70 279.90 80
7 09/04/2022 02:21:41 0.02, -75.26 0.62, -72.72 290.45 80
8 09/05/2022 14:40:31 -0.02, -75.29 0.42, -77.27 226.03 80
9 09/06/2022 14:17:10 -0.02, -75.30 -0.67, -72.27 344.55 80
10 09/08/2022 02:38:50 0.01, -75.30 -0.35, -76.86 178.02 80
11 09/09/2022 02:15:29 0.01, -75.32 0.75, -71.86 393.01 80
